KC4JIR Weather Reports


time (UTC)temp
C
wind
direction
speed
KPH
gust
KPH
rain 1hr
cm
rain 24hr
cm
rain mn
cm
humidity
%
barometer
mb
20260506124355 18 21 0.0 0.0 0.00 0.00 0.00 93 1013.8
20260506123853 18 42 0.0 0.0 0.00 0.00 0.00 93 1013.9
20260506123351 17 12 0.0 0.0 0.00 0.00 0.00 93 1013.8
20260506122848 17 24 0.0 0.0 0.00 0.00 0.00 94 1013.6
20260506122345 17 41 0.0 0.0 0.00 0.00 0.00 94 1013.7
20260506121843 17 42 0.0 0.0 0.00 0.00 0.00 95 1013.6
20260506121340 17 25 0.0 0.0 0.00 0.00 0.00 95 1013.4
20260506120837 16 33 0.0 0.0 0.00 0.00 0.00 95 1013.4
20260506120335 16 32 0.0 0.0 0.00 0.00 0.00 96 1013.4
20260506115832 16 34 0.0 0.0 0.00 0.00 0.00 96 1013.0
20260506115330 16 36 0.0 0.0 0.00 0.00 0.00 97 1013.1
20260506114828 16 32 0.0 0.0 0.00 0.00 0.00 96 1012.9
20260506114325 16 39 0.0 0.0 0.00 0.00 0.00 96 1013.0
20260506113824 16 43 0.0 0.0 0.00 0.00 0.00 96 1012.7
20260506113321 16 40 0.0 0.0 0.00 0.00 0.00 96 1012.8
20260506112817 16 97 0.0 0.0 0.00 0.00 0.00 97 1012.7
20260506112315 16 58 0.0 0.0 0.00 0.00 0.00 96 1013.0
20260506111812 16 81 0.0 0.0 0.00 0.00 0.00 97 1012.7
20260506111310 16 52 0.0 0.0 0.00 0.00 0.00 97 1012.7
20260506110807 15 85 0.0 0.0 0.00 0.00 0.00 96 1012.4
20260506110304 15 51 0.0 0.0 0.00 0.00 0.00 96 1012.5
20260506105801 15 51 0.0 0.0 0.00 0.00 0.00 96 1012.2
20260506105257 15 41 0.0 0.0 0.00 0.00 0.00 96 1012.2
20260506104755 15 62 0.0 0.0 0.00 0.00 0.00 96 1011.8
20260506104253 15 53 0.0 0.0 0.00 0.00 0.00 96 1011.7
20260506103750 15 48 0.0 0.0 0.00 0.00 0.00 96 1011.8
20260506103247 15 48 0.0 0.0 0.00 0.00 0.00 96 1012.0
20260506102745 15 60 0.0 0.0 0.00 0.00 0.00 96 1012.0
20260506102243 15 60 0.0 0.0 0.00 0.00 0.00 96 1011.9
20260506101739 15 61 0.0 0.0 0.00 0.00 0.00 96 1011.7
20260506101236 15 62 0.0 0.0 0.00 0.00 0.00 96 1011.7
20260506100734 15 57 0.0 0.0 0.00 0.00 0.00 96 1011.7
20260506100232 15 71 0.0 0.0 0.00 0.00 0.00 97 1011.8
20260506095730 15 54 0.0 0.0 0.00 0.00 0.00 97 1011.9
20260506095226 15 54 0.0 0.0 0.00 0.00 0.00 97 1011.9
20260506094723 15 58 0.0 0.0 0.00 0.00 0.00 97 1012.1
20260506094221 15 58 0.0 0.0 0.00 0.00 0.00 96 1012.0
20260506093720 15 62 0.0 0.0 0.00 0.00 0.00 96 1011.9
20260506093216 15 63 0.0 0.0 0.00 0.00 0.00 96 1011.7
20260506092714 15 57 0.0 0.0 0.00 0.00 0.00 96 1011.9
20260506092212 15 61 0.0 0.0 0.00 0.00 0.00 96 1011.8
20260506091709 15 64 0.0 0.0 0.00 0.00 0.00 95 1011.9
20260506091206 -17 0.0 0.0 0.00 0.00 0.00 1011.9
20260506090704 -17 0.0 0.0 0.00 0.00 0.00 1012.0
20260506090201 -17 0.0 0.0 0.00 0.00 0.00 1011.9
20260506085658 -17 0.0 0.0 0.00 0.00 0.00 1012.1
20260506085153 -17 0.0 0.0 0.00 0.00 0.00 1012.3
20260506084651 -17 0.0 0.0 0.00 0.00 0.00 1012.3
20260506084147 -17 0.0 0.0 0.00 0.00 0.00 1012.4
20260506083644 -17 0.0 0.0 0.00 0.00 0.00 1012.5
20260506083142 -17 0.0 0.0 0.00 0.00 0.00 1012.5
20260506082639 15 58 0.0 0.0 0.00 0.00 0.00 93 1012.7
20260506082134 15 58 0.0 0.0 0.00 0.00 0.00 93 1012.4
20260506081632 15 69 0.0 0.0 0.00 0.00 0.00 93 1012.6
20260506081130 15 69 0.0 0.0 0.00 0.00 0.00 93 1012.5
20260506080627 -17 0.0 0.0 0.00 0.00 0.00 1012.5
20260506080124 -17 0.0 0.0 0.00 0.00 0.00 1012.4
20260506073108 -17 0.0 0.0 0.00 0.00 0.00 1012.2
20260506072604 -17 0.0 0.0 0.00 0.00 0.00 1012.0
20260506072102 -17 0.0 0.0 0.00 0.00 0.00 1012.2
20260506071600 -17 0.0 0.0 0.00 0.00 0.00 1012.0
20260506071057 -17 0.0 0.0 0.00 0.00 0.00 1012.2
20260506070554 15 62 0.0 0.0 0.00 0.00 0.00 90 1012.2
20260506062028 16 59 0.0 0.0 0.00 0.00 0.00 88 1011.7
20260506061524 16 61 0.0 0.0 0.00 0.00 0.00 88 1011.9
20260506061022 -17 0.0 0.0 0.00 0.00 0.00 1011.8
20260506060520 -17 0.0 0.0 0.00 0.00 0.00 1012.1
20260506050949 16 62 0.0 0.0 0.00 0.00 0.00 83 1012.2
20260506050446 16 62 0.0 0.0 0.00 0.00 0.00 82 1012.0
20260506044937 -17 0.0 0.0 0.00 0.00 0.00 1012.2
20260506044435 -17 0.0 0.0 0.00 0.00 0.00 1012.3
20260506043931 -17 0.0 0.0 0.00 0.00 0.00 1012.4
20260506043429 -17 0.0 0.0 0.00 0.00 0.00 1012.3
20260506042926 17 76 0.0 0.0 0.00 0.00 0.00 80 1012.3
20260506042426 17 76 0.0 0.0 0.00 0.00 0.00 80 1012.6
20260506041923 17 83 0.0 0.0 0.00 0.00 0.00 80 1012.5
20260506041421 17 68 0.0 0.0 0.00 0.00 0.00 79 1012.5
20260506040918 -17 0.0 0.0 0.00 0.00 0.00 1012.4
20260506040415 -17 0.0 0.0 0.00 0.00 0.00 1012.6
20260506035911 17 64 0.0 0.0 0.00 0.00 0.00 77 1012.3
20260506035409 17 64 0.0 0.0 0.00 0.00 0.00 77 1012.3
20260506034906 17 64 0.0 0.0 0.00 0.00 0.00 77 1012.0
20260506034403 -17 0.0 0.0 0.00 0.00 0.00 1012.3
20260506033900 -17 0.0 0.0 0.00 0.00 0.00 1012.3
20260506033357 -17 0.0 0.0 0.00 0.00 0.00 1012.3
20260506032854 -17 0.0 0.0 0.00 0.00 0.00 1012.3
20260506032350 -17 0.0 0.0 0.00 0.00 0.00 1012.4
20260506031847 -17 0.0 0.0 0.00 0.00 0.00 1012.1
20260506031345 -17 0.0 0.0 0.00 0.00 0.00 1012.2
20260506030842 -17 0.0 0.0 0.00 0.00 0.00 1012.6
20260506030340 -17 0.0 0.0 0.00 0.00 0.00 1012.2
20260506025837 18 80 0.0 0.0 0.00 0.00 0.00 71 1012.6
20260506025333 18 80 0.0 0.0 0.00 0.00 0.00 71 1012.8
20260506024830 18 80 0.0 0.0 0.00 0.00 0.00 71 1012.9
20260506024327 -17 0.0 0.0 0.00 0.00 0.00 1012.6
20260506023823 -17 0.0 0.0 0.00 0.00 0.00 1012.5
20260506023320 -17 0.0 0.0 0.00 0.00 0.00 1012.3
20260506022817 19 81 0.0 0.0 0.00 0.00 0.00 70 1012.2
20260506022315 19 81 0.0 0.0 0.00 0.00 0.00 70 1012.5
20260506021813 -17 0.0 0.0 0.00 0.00 0.00 1012.1
20260506021309 -17 0.0 0.0 0.00 0.00 0.00 1012.0
20260506020806 -17 0.0 0.0 0.00 0.00 0.00 1011.9
20260506020304 -17 0.0 0.0 0.00 0.00 0.00 1012.1
20260506015801 -17 0.0 0.0 0.00 0.00 0.00 1012.1
20260506015259 -17 0.0 0.0 0.00 0.00 0.00 1012.0
20260506014755 -17 0.0 0.0 0.00 0.00 0.00 1012.3
20260506014252 -17 0.0 0.0 0.00 0.00 0.00 1012.0
20260506013749 -17 0.0 0.0 0.00 0.00 0.00 1012.0
20260506013246 -17 0.0 0.0 0.00 0.00 0.00 1012.1
20260506012742 -17 0.0 0.0 0.00 0.00 0.00 1011.9
20260506012239 -17 0.0 0.0 0.00 0.00 0.00 1011.8
20260506011737 -17 0.0 0.0 0.00 0.00 0.00 1012.1
20260506011233 -17 0.0 0.0 0.00 0.00 0.00 1012.2
20260506010731 -17 0.0 0.0 0.00 0.00 0.00 1012.3
20260506010228 -17 0.0 0.0 0.00 0.00 0.00 1012.3
20260506005726 -17 0.0 0.0 0.00 0.00 0.00 1012.1
20260506005222 -17 0.0 0.0 0.00 0.00 0.00 1012.1
20260506004718 -17 0.0 0.0 0.00 0.00 0.00 1011.7
20260506004216 -17 0.0 0.0 0.00 0.00 0.00 1011.8
20260506003712 -17 0.0 0.0 0.00 0.00 0.00 1011.8
20260506003208 -17 0.0 0.0 0.00 0.00 0.00 1011.7
20260506002704 -17 0.0 0.0 0.00 0.00 0.00 1011.8
20260506002201 24 79 0.0 0.0 0.00 0.00 0.00 47 1011.9
20260506001656 24 79 0.0 0.0 0.00 0.00 0.00 47 1011.8
20260506001154 24 87 0.0 0.0 0.00 0.00 0.00 46 1011.8
20260506000651 24 87 0.0 0.0 0.00 0.00 0.00 47 1011.4
20260506000148 25 82 0.0 0.0 0.00 0.00 0.00 48 1011.4
20260505235646 25 99 0.0 0.0 0.00 0.00 0.00 45 1011.4
20260505235143 25 132 0.0 0.0 0.00 0.00 0.00 46 1011.4
20260505234640 25 232 0.0 0.0 0.00 0.00 0.00 43 1011.2
20260505234137 26 75 1.6 1.6 0.00 0.00 0.00 42 1011.3
20260505233634 26 249 3.2 4.8 0.00 0.00 0.00 43 1011.2
20260505233132 26 233 3.2 4.8 0.00 0.00 0.00 43 1011.1
20260505232629 26 150 1.6 1.6 0.00 0.00 0.00 43 1011.3
20260505232126 26 234 4.8 4.8 0.00 0.00 0.00 41 1011.2
20260505231623 26 31 1.6 3.2 0.00 0.00 0.00 43 1011.0
20260505231122 26 222 1.6 3.2 0.00 0.00 0.00 44 1011.1
20260505230620 26 115 0.0 1.6 0.00 0.00 0.00 46 1011.0
20260505230115 27 153 4.8 4.8 0.00 0.00 0.00 44 1011.1
20260505225612 27 305 1.6 1.6 0.00 0.00 0.00 43 1011.1
20260505225108 28 279 1.6 1.6 0.00 0.00 0.00 42 1011.1
20260505224605 28 197 4.8 8.0 0.00 0.00 0.00 42 1011.0
20260505224102 28 211 3.2 4.8 0.00 0.00 0.00 41 1010.9
20260505223600 28 224 1.6 3.2 0.00 0.00 0.00 42 1010.8
20260505223056 28 101 0.0 1.6 0.00 0.00 0.00 41 1011.0
20260505222552 28 260 3.2 3.2 0.00 0.00 0.00 42 1011.1
20260505222048 28 296 0.0 0.0 0.00 0.00 0.00 40 1011.0
20260505221546 28 258 1.6 1.6 0.00 0.00 0.00 41 1011.1
20260505221042 29 290 0.0 0.0 0.00 0.00 0.00 40 1011.3
20260505220539 28 263 0.0 0.0 0.00 0.00 0.00 40 1011.3
20260505220037 29 94 1.6 1.6 0.00 0.00 0.00 39 1011.4
20260505215535 29 291 4.8 4.8 0.00 0.00 0.00 39 1011.1
20260505215032 28 199 0.0 0.0 0.00 0.00 0.00 41 1011.2
20260505214530 28 159 3.2 3.2 0.00 0.00 0.00 42 1011.4
20260505214027 28 191 1.6 1.6 0.00 0.00 0.00 40 1011.4
20260505213525 29 179 4.8 8.0 0.00 0.00 0.00 42 1011.3
20260505213021 29 290 1.6 3.2 0.00 0.00 0.00 41 1011.5
20260505212517 28 270 3.2 3.2 0.00 0.00 0.00 42 1011.6
20260505212015 28 143 3.2 3.2 0.00 0.00 0.00 40 1011.6
20260505211512 28 159 1.6 1.6 0.00 0.00 0.00 43 1011.6
20260505211008 28 216 4.8 8.0 0.00 0.00 0.00 41 1011.3
20260505210505 29 17 1.6 1.6 0.00 0.00 0.00 41 1011.4
20260505210002 28 219 3.2 8.0 0.00 0.00 0.00 43 1011.3
20260505205500 29 279 1.6 3.2 0.00 0.00 0.00 42 1011.3
20260505204956 28 307 0.0 0.0 0.00 0.00 0.00 44 1011.1
20260505204455 29 266 1.6 3.2 0.00 0.00 0.00 42 1011.3
20260505203952 29 237 0.0 1.6 0.00 0.00 0.00 41 1011.4
20260505203448 28 302 1.6 3.2 0.00 0.00 0.00 43 1011.8
20260505202944 29 264 4.8 4.8 0.00 0.00 0.00 41 1011.8
20260505202441 29 275 1.6 1.6 0.00 0.00 0.00 43 1011.9
20260505201937 28 169 1.6 3.2 0.00 0.00 0.00 42 1011.6
20260505201434 28 156 6.4 9.7 0.00 0.00 0.00 40 1011.8
20260505200932 29 154 3.2 4.8 0.00 0.00 0.00 44 1012.0
20260505200430 28 253 3.2 3.2 0.00 0.00 0.00 42 1011.9
20260505195925 29 251 0.0 0.0 0.00 0.00 0.00 42 1011.7
20260505195423 29 250 1.6 1.6 0.00 0.00 0.00 44 1012.1
20260505194920 28 167 3.2 3.2 0.00 0.00 0.00 43 1012.1
20260505194417 28 106 1.6 1.6 0.00 0.00 0.00 43 1012.3
20260505193917 28 226 4.8 9.7 0.00 0.00 0.00 42 1012.3
20260505193415 28 254 3.2 4.8 0.00 0.00 0.00 45 1012.4
20260505192913 28 257 3.2 3.2 0.00 0.00 0.00 46 1012.4
20260505192410 28 84 1.6 3.2 0.00 0.00 0.00 43 1012.3
20260505191908 28 191 1.6 1.6 0.00 0.00 0.00 44 1012.4
20260505191407 28 217 8.0 11.3 0.00 0.00 0.00 42 1012.6
20260505190903 28 224 4.8 4.8 0.00 0.00 0.00 43 1012.5
20260505190358 28 337 3.2 3.2 0.00 0.00 0.00 45 1012.8
20260505185854 28 119 3.2 3.2 0.00 0.00 0.00 44 1013.2
20260505185350 27 280 3.2 3.2 0.00 0.00 0.00 44 1012.8
20260505184847 27 233 3.2 3.2 0.00 0.00 0.00 47 1013.3
20260505184344 27 155 4.8 4.8 0.00 0.00 0.00 45 1013.2
20260505183841 27 224 4.8 8.0 0.00 0.00 0.00 46 1013.5
20260505183338 27 246 6.4 9.7 0.00 0.00 0.00 47 1013.5
20260505182834 27 139 8.0 9.7 0.00 0.00 0.00 45 1013.6
20260505182331 26 255 3.2 3.2 0.00 0.00 0.00 49 1013.5
20260505181828 27 214 1.6 1.6 0.00 0.00 0.00 48 1013.4
20260505181325 27 299 1.6 1.6 0.00 0.00 0.00 47 1013.7
20260505180822 27 68 1.6 3.2 0.00 0.00 0.00 53 1013.4
20260505180318 27 93 1.6 1.6 0.00 0.00 0.00 50 1013.6
20260505175815 27 163 4.8 4.8 0.00 0.00 0.00 47 1013.5
20260505175311 27 123 1.6 1.6 0.00 0.00 0.00 47 1013.7
20260505174808 26 23 3.2 3.2 0.00 0.00 0.00 51 1013.8
20260505174305 26 85 0.0 0.0 0.00 0.00 0.00 50 1013.7
20260505173801 26 111 3.2 3.2 0.00 0.00 0.00 48 1013.7
20260505173258 26 337 1.6 3.2 0.00 0.00 0.00 47 1013.9
20260505172755 26 291 6.4 9.7 0.00 0.00 0.00 45 1013.8
20260505172252 26 168 1.6 3.2 0.00 0.00 0.00 47 1013.8
20260505171747 25 239 4.8 8.0 0.00 0.00 0.00 49 1014.1
20260505171244 26 267 3.2 4.8 0.00 0.00 0.00 51 1013.9
20260505170740 27 231 3.2 3.2 0.00 0.00 0.00 50 1014.1
20260505170238 26 86 1.6 1.6 0.00 0.00 0.00 52 1013.9
20260505165732 26 172 6.4 8.0 0.00 0.00 0.00 52 1014.0
20260505165229 26 4 3.2 3.2 0.00 0.00 0.00 53 1014.4
20260505164724 26 240 6.4 8.0 0.00 0.00 0.00 53 1014.1
20260505164222 26 168 3.2 4.8 0.00 0.00 0.00 52 1014.1
20260505163720 26 350 0.0 0.0 0.00 0.00 0.00 55 1014.1
20260505163218 26 147 1.6 1.6 0.00 0.00 0.00 51 1014.4
20260505162715 25 240 3.2 8.0 0.00 0.00 0.00 52 1014.5
20260505162212 26 71 1.6 1.6 0.00 0.00 0.00 53 1014.5
20260505161709 25 142 1.6 3.2 0.00 0.00 0.00 55 1014.5
20260505161207 25 12 1.6 1.6 0.00 0.00 0.00 56 1014.5
20260505160704 25 52 3.2 3.2 0.00 0.00 0.00 57 1014.5
20260505160202 25 132 1.6 3.2 0.00 0.00 0.00 60 1014.6
20260505153141 23 241 4.8 4.8 0.00 0.00 0.00 63 1014.8
20260505152637 23 182 4.8 9.7 0.00 0.00 0.00 62 1014.7
20260505152133 23 182 4.8 9.7 0.00 0.00 0.00 62 1014.8
20260505151629 23 71 0.0 0.0 0.00 0.00 0.00 63 1014.5
20260505151126 23 260 6.4 11.3 0.00 0.00 0.00 61 1014.6
20260505150622 22 207 1.6 1.6 0.00 0.00 0.00 66 1014.5
20260505150119 22 207 1.6 1.6 0.00 0.00 0.00 66 1014.7
20260505140548 20 206 1.6 3.2 0.00 0.00 0.00 76 1014.5
20260505125001 -17 0.0 0.0 0.00 0.00 0.00 1014.1
20260505124458 -17 0.0 0.0 0.00 0.00 0.00 1014.2